This demonstration page uses our WeatherBlox Daily Observations layout. Learn more.

Left ArrowRight Arrow

34.74481, -87.66753

Hourly Observations for March 28, 2018

Temp ( °F °C ) Dew Point ( °F °C ) Humidity (%) Winds ( mph kmh ) Pressure ( in mb ) Visibility ( mi km ) Precip ( " mm )
12:53 am 00:53 Mostly Clear 64 17.8 55 12.8 73 73 S 9 15 30.05 1018 10 16 0.00 0.00
1:53 am 01:53 Clear 63 17.2 55 12.8 76 76 S 8 13 30.03 1017 10 16 0.00 0.00
2:39 am 02:39 Mostly Cloudy 63 17.2 56 13.3 78 78 S 9 15 30.00 1016 10 16 0.00 0.00
2:53 am 02:53 Mostly Cloudy 63 17.2 56 13.3 78 78 S 9 15 30.02 1017 10 16 0.00 0.00
3:53 am 03:53 Cloudy 64 17.8 57 13.9 78 78 S 10 17 30.00 1016 10 16 0.00 0.00
4:32 am 04:32 Cloudy 64 17.8 57 13.9 78 78 S 13 20 29.97 1015 10 16 0.00 0.00
4:53 am 04:53 Cloudy 63 17.2 57 13.9 81 81 S 15 24 29.98 1015 10 16 0.00 0.00
5:53 am 05:53 Cloudy 64 17.8 58 14.4 81 81 SSW 12 19 29.99 1016 10 16 0.00 0.00
6:53 am 06:53 Cloudy 64 17.8 58 14.4 81 81 SSW 10 17 30.01 1016 10 16 0.00 0.00
7:53 am 07:53 Cloudy 65 18.3 59 15 81 81 SSW 10 17 30.03 1017 10 16 0.00 0.00
8:29 am 08:29 Cloudy 66 18.9 59 15 78 78 S 14 22 30.00 1016 10 16 0.00 0.00
8:53 am 08:53 Cloudy 67 19.4 59 15 76 76 SSW 14 22 30.03 1017 10 16 0.00 0.00
9:53 am 09:53 Cloudy 69 20.6 60 15.6 73 73 SSW 20 31 30.03 1017 10 16 0.00 0.00
10:53 am 10:53 Cloudy 71 21.7 60 15.6 68 68 SW 16 26 30.03 1017 10 16 0.00 0.00
11:53 am 11:53 Cloudy 72 22.2 61 16.1 68 68 SSW 14 22 30.01 1016 10 16 0.00 0.00
12:44 pm 12:44 Cloudy with Light Rain 65 18.3 59 15 81 81 WNW 13 20 30.03 1017 10 16 0.00 0.03
12:53 pm 12:53 Cloudy with Light Rain 64 17.8 60 15.6 87 87 NW 7 11 30.03 1017 10 16 0.00 0.03
1:08 pm 13:08 Cloudy 65 18.3 61 16.1 87 87 WNW 6 9 30.00 1016 10 16 0.00 0.03
1:53 pm 13:53 Mostly Cloudy 69 20.6 60 15.6 73 73 W 9 15 30.00 1016 10 16 0.00 0.03
2:53 pm 14:53 Mostly Sunny 71 21.7 58 14.4 63 63 WNW 6 9 29.97 1015 10 16 0.00 0.00
3:53 pm 15:53 Mostly Sunny 72 22.2 58 14.4 61 61 Calm 29.95 1014 10 16 0.00 0.00
4:53 pm 16:53 Mostly Sunny 71 21.7 59 15 66 66 SE 3 6 29.93 1014 10 16 0.00 0.00
5:53 pm 17:53 Partly Cloudy 71 21.7 59 15 66 66 E 7 11 29.91 1013 10 16 0.00 0.00
6:53 pm 18:53 Sunny 68 20 59 15 73 73 E 7 11 29.90 1013 10 16 0.00 0.00
7:53 pm 19:53 Mostly Cloudy 68 20 59 15 73 73 E 6 9 29.88 1012 10 16 0.00 0.00
8:53 pm 20:53 Clear 66 18.9 59 15 78 78 SE 6 9 29.89 1012 10 16 0.00 0.00
9:22 pm 21:22 Mostly Clear with Nearby Thunderstorms 67 19.4 59 15 76 76 ESE 6 9 29.85 1011 10 16 0.00 0.00
9:43 pm 21:43 Cloudy with Light Rain 66 18.9 60 15.6 81 81 ESE 3 6 29.88 1012 10 16 0.00 0.03
9:53 pm 21:53 Cloudy with Light Rain 66 18.9 60 15.6 81 81 E 6 9 29.88 1012 10 16 0.00 0.03
10:53 pm 22:53 Cloudy with Light Rain 68 20 61 16.1 78 78 SW 6 9 29.92 1013 7 11 0.06 1.52
11:24 pm 23:24 Cloudy with Rain 64 17.8 61 16.1 90 90 NNW 6 9 29.91 1013 3 5 0.15 3.81
11:53 pm 23:53 Cloudy with Rain 63 17.2 59 15 87 87 ENE 9 15 29.91 1013 7 11 0.21 5.33

Powered by AerisWeather